AUA48M LPMA-LOWW

Flight info

Callsign AUA48M
Flight time 3h 54m
Altitude 34000
Route DEGUN DCT GALPA DCT TOSDI/N0451F360 N745 ZMR N976 DGO T429 TOPTU DCT TOU DCT GAI DCT MEN DCT NINUN DCT LATAM DCT ETREK DCT LTP DCT SOPLO DCT OMASI DCT KINNI DCT SOSAL DCT KORED DCT GAMSA/N0450F370 DCT TULSI DCT INPUL/N0454F330 DCT NEMAL NEMAL2W
Aircraft A320/M-SDE3FGHIRWY/LB1

Departure

Time 2026-05-06 14:28
Airport Cristiano Ronaldo International Airport (LPMA)

Arrival

Time 2026-05-06 18:22
Airport Vienna International Airport (LOWW)
Time Latitude Longitude Altitude Speed Heading
2026-05-06 14:04 32.69359 -16.77656 172 ft 0 kts 137°
2026-05-06 14:20 32.69363 -16.77661 172 ft 4 kts 138°
2026-05-06 14:21 32.69384 -16.77681 173 ft 4 kts 148°
2026-05-06 14:21 32.69408 -16.77693 173 ft 4 kts 179°
2026-05-06 14:21 32.69425 -16.77688 174 ft 1 kts 226°
2026-05-06 14:23 32.69423 -16.77690 174 ft 1 kts 226°
2026-05-06 14:23 32.69411 -16.77705 173 ft 5 kts 226°
2026-05-06 14:24 32.69375 -16.77749 172 ft 10 kts 226°
2026-05-06 14:24 32.69321 -16.77816 170 ft 12 kts 226°
2026-05-06 14:24 32.69288 -16.77898 169 ft 11 kts 270°
2026-05-06 14:24 32.69288 -16.77992 167 ft 13 kts 269°
2026-05-06 14:25 32.69232 -16.78098 162 ft 19 kts 225°
2026-05-06 14:25 32.69121 -16.78227 157 ft 25 kts 224°
2026-05-06 14:25 32.68995 -16.78374 151 ft 22 kts 222°
2026-05-06 14:25 32.68887 -16.78449 148 ft 16 kts 270°
2026-05-06 14:26 32.68938 -16.78441 150 ft 0 kts 44°
2026-05-06 14:27 32.68943 -16.78435 150 ft 7 kts 44°
2026-05-06 14:27 32.69165 -16.78179 158 ft 78 kts 44°
2026-05-06 14:27 32.69679 -16.77579 198 ft 129 kts 44°
2026-05-06 14:27 32.70411 -16.76750 478 ft 151 kts 42°
2026-05-06 14:28 32.71077 -16.75782 1144 ft 158 kts 66°
2026-05-06 14:28 32.71222 -16.74452 1667 ft 175 kts 97°
2026-05-06 14:28 32.70771 -16.73022 1993 ft 196 kts 109°
2026-05-06 14:28 32.70242 -16.71441 2359 ft 214 kts 107°
2026-05-06 14:29 32.69675 -16.69683 2656 ft 241 kts 107°
2026-05-06 14:29 32.69052 -16.67741 3134 ft 260 kts 107°
2026-05-06 14:29 32.68398 -16.65707 3912 ft 266 kts 107°
2026-05-06 14:29 32.67734 -16.63648 4709 ft 272 kts 108°
2026-05-06 14:30 32.67049 -16.61522 5476 ft 277 kts 109°
2026-05-06 14:30 32.66356 -16.59361 6241 ft 284 kts 110°
2026-05-06 14:30 32.65867 -16.57084 6974 ft 288 kts 92°
2026-05-06 14:30 32.66031 -16.54713 7713 ft 289 kts 72°
2026-05-06 14:31 32.66841 -16.52556 8492 ft 286 kts 52°
2026-05-06 14:31 32.68165 -16.50813 9303 ft 285 kts 40°
2026-05-06 14:31 32.69609 -16.49185 10134 ft 286 kts 40°
2026-05-06 14:31 32.71081 -16.47520 10524 ft 304 kts 41°
2026-05-06 14:32 32.72672 -16.45722 10674 ft 327 kts 41°
2026-05-06 14:32 32.74377 -16.43786 10803 ft 350 kts 41°
2026-05-06 14:32 32.76171 -16.41735 11149 ft 363 kts 41°
2026-05-06 14:32 32.77997 -16.39636 11738 ft 367 kts 41°
2026-05-06 14:33 32.79845 -16.37512 12362 ft 372 kts 41°
2026-05-06 14:33 32.81714 -16.35366 12991 ft 376 kts 41°
2026-05-06 14:33 32.83608 -16.33196 13596 ft 380 kts 41°
2026-05-06 14:33 32.85526 -16.31002 14159 ft 384 kts 41°
2026-05-06 14:34 32.86808 -16.29537 14517 ft 387 kts 41°
2026-05-06 14:34 32.88751 -16.27312 15055 ft 390 kts 41°
2026-05-06 14:34 32.90716 -16.25053 15572 ft 394 kts 41°
2026-05-06 14:34 32.92692 -16.22779 16103 ft 397 kts 41°
2026-05-06 14:35 32.94676 -16.20496 16618 ft 396 kts 41°
2026-05-06 14:35 32.96647 -16.18228 17103 ft 397 kts 41°
2026-05-06 14:35 32.98658 -16.15922 17478 ft 404 kts 40°
2026-05-06 14:35 33.00695 -16.13587 17943 ft 408 kts 40°
2026-05-06 14:36 33.02744 -16.11231 18424 ft 411 kts 41°
2026-05-06 14:36 33.04802 -16.08858 18854 ft 414 kts 40°
2026-05-06 14:36 33.06881 -16.06458 19286 ft 416 kts 40°
2026-05-06 14:36 33.08967 -16.04049 19697 ft 419 kts 40°
2026-05-06 14:37 33.11065 -16.01626 20122 ft 421 kts 40°
2026-05-06 14:37 33.13145 -15.99221 20562 ft 423 kts 40°
2026-05-06 14:37 33.15266 -15.96762 20928 ft 427 kts 40°
2026-05-06 14:37 33.17403 -15.94285 21330 ft 429 kts 40°
2026-05-06 14:38 33.19552 -15.91794 21742 ft 432 kts 40°
2026-05-06 14:38 33.21712 -15.89291 22143 ft 434 kts 40°
2026-05-06 14:38 33.23880 -15.86771 22527 ft 436 kts 40°
2026-05-06 14:38 33.26059 -15.84236 22900 ft 438 kts 40°
2026-05-06 14:39 33.28250 -15.81688 23268 ft 441 kts 40°
2026-05-06 14:39 33.30453 -15.79128 23627 ft 443 kts 40°
2026-05-06 14:39 33.32666 -15.76553 23943 ft 445 kts 40°
2026-05-06 14:39 33.34887 -15.73968 24273 ft 446 kts 40°
2026-05-06 14:40 33.37139 -15.71345 24608 ft 447 kts 40°
2026-05-06 14:40 33.39341 -15.68776 24929 ft 449 kts 40°
2026-05-06 14:40 33.41586 -15.66178 25249 ft 448 kts 37°
2026-05-06 14:40 33.44000 -15.63835 25568 ft 447 kts 33°
2026-05-06 14:41 33.46467 -15.61540 25825 ft 449 kts 33°
2026-05-06 14:41 33.48932 -15.59243 26119 ft 451 kts 33°
2026-05-06 14:41 33.51407 -15.56930 26411 ft 452 kts 33°
2026-05-06 14:41 33.53885 -15.54606 26696 ft 453 kts 33°
2026-05-06 14:42 33.56373 -15.52270 26982 ft 454 kts 33°
2026-05-06 14:42 33.58858 -15.49938 27254 ft 455 kts 33°
2026-05-06 14:42 33.61359 -15.47590 27529 ft 456 kts 33°
2026-05-06 14:42 33.63858 -15.45242 27824 ft 456 kts 33°
2026-05-06 14:43 33.66349 -15.42895 28223 ft 454 kts 33°
2026-05-06 14:43 33.68828 -15.40557 28634 ft 452 kts 33°
2026-05-06 14:43 33.71269 -15.38255 29042 ft 450 kts 33°
2026-05-06 14:43 33.73727 -15.35938 29443 ft 448 kts 33°
2026-05-06 14:44 33.76176 -15.33632 29843 ft 446 kts 33°
2026-05-06 14:44 33.78612 -15.31334 30276 ft 444 kts 33°
2026-05-06 14:44 33.81031 -15.29048 30642 ft 441 kts 33°
2026-05-06 14:45 33.85853 -15.24489 31229 ft 440 kts 33°
2026-05-06 14:45 33.88262 -15.22211 31491 ft 440 kts 33°
2026-05-06 14:45 33.90672 -15.19930 31760 ft 440 kts 33°
2026-05-06 14:45 33.93058 -15.17671 32029 ft 440 kts 33°
2026-05-06 14:46 33.95466 -15.15390 32303 ft 440 kts 33°
2026-05-06 14:46 33.97874 -15.13109 32573 ft 440 kts 33°
2026-05-06 14:46 34.00280 -15.10826 32841 ft 440 kts 33°
2026-05-06 14:46 34.02687 -15.08541 33110 ft 440 kts 33°
2026-05-06 14:47 34.05092 -15.06254 33387 ft 440 kts 33°
2026-05-06 14:47 34.07494 -15.03965 33678 ft 440 kts 33°
2026-05-06 14:47 34.09896 -15.01674 33976 ft 439 kts 33°
2026-05-06 14:47 34.12290 -14.99392 34099 ft 440 kts 33°
2026-05-06 14:48 34.14699 -14.97095 34118 ft 442 kts 33°
2026-05-06 14:48 34.19534 -14.92478 34122 ft 444 kts 33°
2026-05-06 14:49 34.24358 -14.87863 34114 ft 446 kts 33°
2026-05-06 14:49 34.29223 -14.83207 34114 ft 446 kts 33°
2026-05-06 14:50 34.34087 -14.78541 34112 ft 446 kts 33°
2026-05-06 14:50 34.38945 -14.73863 34132 ft 446 kts 34°
2026-05-06 14:51 34.43658 -14.68917 34131 ft 448 kts 37°
2026-05-06 14:51 34.48160 -14.63755 34129 ft 449 kts 39°
2026-05-06 14:52 34.52679 -14.58525 34128 ft 448 kts 38°
2026-05-06 14:52 34.57236 -14.53344 34114 ft 449 kts 38°
2026-05-06 14:53 34.61818 -14.48181 34095 ft 450 kts 38°
2026-05-06 14:53 34.66397 -14.43009 34124 ft 450 kts 38°
2026-05-06 14:54 34.70965 -14.37817 34122 ft 449 kts 38°
2026-05-06 14:54 34.75522 -14.32627 34119 ft 449 kts 38°
2026-05-06 14:55 34.80076 -14.27441 34125 ft 448 kts 38°
2026-05-06 14:55 34.84597 -14.22283 34115 ft 448 kts 38°
2026-05-06 14:56 34.89151 -14.17081 34105 ft 450 kts 38°
2026-05-06 14:56 34.93715 -14.11854 34120 ft 451 kts 38°
2026-05-06 14:57 34.98282 -14.06614 34114 ft 451 kts 38°
2026-05-06 14:57 35.02846 -14.01370 34113 ft 451 kts 38°
2026-05-06 14:58 35.07407 -13.96121 34114 ft 451 kts 38°
2026-05-06 14:58 35.11963 -13.90877 34107 ft 450 kts 38°
2026-05-06 14:59 35.16526 -13.85614 34118 ft 450 kts 38°
2026-05-06 14:59 35.21089 -13.80339 34085 ft 452 kts 38°
2026-05-06 15:00 35.25665 -13.75050 34077 ft 453 kts 38°
2026-05-06 15:00 35.30251 -13.69736 34081 ft 454 kts 38°
2026-05-06 15:01 35.34835 -13.64398 34086 ft 455 kts 38°
2026-05-06 15:01 35.39423 -13.59050 34086 ft 455 kts 38°
2026-05-06 15:02 35.43988 -13.53739 34099 ft 455 kts 38°
2026-05-06 15:02 35.48586 -13.48390 34110 ft 456 kts 39°
2026-05-06 15:03 35.53194 -13.43005 34090 ft 457 kts 39°
2026-05-06 15:03 35.57801 -13.37594 34081 ft 458 kts 39°
2026-05-06 15:04 35.62414 -13.32187 34082 ft 458 kts 39°
2026-05-06 15:04 35.67030 -13.26770 34082 ft 459 kts 39°
2026-05-06 15:05 35.71647 -13.21343 34085 ft 459 kts 39°
2026-05-06 15:05 35.76261 -13.15897 34086 ft 459 kts 39°
2026-05-06 15:06 35.80835 -13.10472 34106 ft 460 kts 39°
2026-05-06 15:06 35.85486 -13.04977 34082 ft 461 kts 39°
2026-05-06 15:07 35.90087 -12.99536 34073 ft 462 kts 39°
2026-05-06 15:07 35.94718 -12.94040 34072 ft 462 kts 39°
2026-05-06 15:08 35.99343 -12.88535 34073 ft 462 kts 39°
2026-05-06 15:08 36.03964 -12.83024 34077 ft 463 kts 39°
2026-05-06 15:09 36.08592 -12.77499 34097 ft 462 kts 40°
2026-05-06 15:09 36.13220 -12.71963 34084 ft 463 kts 40°
2026-05-06 15:10 36.17852 -12.66416 34074 ft 464 kts 40°
2026-05-06 15:10 36.22490 -12.60868 34065 ft 464 kts 40°
2026-05-06 15:11 36.27137 -12.55296 34066 ft 464 kts 40°
2026-05-06 15:11 36.31769 -12.49719 34069 ft 465 kts 40°
2026-05-06 15:12 36.36401 -12.44127 34087 ft 465 kts 40°
2026-05-06 15:12 36.41028 -12.38525 34084 ft 465 kts 41°
2026-05-06 15:13 36.45641 -12.32947 34052 ft 467 kts 41°
2026-05-06 15:13 36.50302 -12.27308 34050 ft 468 kts 41°
2026-05-06 15:14 36.54958 -12.21645 34053 ft 469 kts 41°
2026-05-06 15:14 36.59615 -12.15972 34059 ft 469 kts 41°
2026-05-06 15:15 36.64281 -12.10295 34072 ft 469 kts 41°
2026-05-06 15:15 36.68934 -12.04601 34079 ft 469 kts 41°
2026-05-06 15:16 36.73591 -11.98893 34051 ft 470 kts 41°
2026-05-06 15:16 36.78270 -11.93174 34045 ft 472 kts 41°
2026-05-06 15:17 36.82954 -11.87428 34046 ft 472 kts 41°
2026-05-06 15:17 36.87613 -11.81695 34050 ft 473 kts 41°
2026-05-06 15:18 36.92301 -11.75924 34065 ft 473 kts 41°
2026-05-06 15:18 36.96987 -11.70139 34063 ft 473 kts 41°
2026-05-06 15:19 37.01659 -11.64364 34063 ft 473 kts 41°
2026-05-06 15:19 37.06333 -11.58579 34061 ft 472 kts 41°
2026-05-06 15:20 37.11002 -11.52785 34062 ft 472 kts 41°
2026-05-06 15:20 37.15666 -11.46986 34061 ft 472 kts 41°
2026-05-06 15:21 37.20329 -11.41186 34081 ft 472 kts 41°
2026-05-06 15:21 37.24946 -11.35413 34075 ft 471 kts 41°
2026-05-06 15:22 37.29597 -11.29605 34057 ft 472 kts 42°
2026-05-06 15:22 37.34261 -11.23780 34034 ft 473 kts 42°
2026-05-06 15:23 37.38929 -11.17921 34031 ft 475 kts 42°
2026-05-06 15:23 37.43597 -11.12033 34050 ft 475 kts 42°
2026-05-06 15:24 37.48263 -11.06152 34049 ft 475 kts 42°
2026-05-06 15:24 37.52148 -11.01251 34050 ft 475 kts 42°
2026-05-06 15:25 37.56751 -10.95438 34051 ft 475 kts 42°
2026-05-06 15:25 37.61437 -10.89513 34039 ft 477 kts 43°
2026-05-06 15:26 37.66114 -10.83577 34011 ft 478 kts 43°
2026-05-06 15:26 37.70806 -10.77615 34033 ft 479 kts 43°
2026-05-06 15:27 37.75475 -10.71672 34041 ft 479 kts 43°
2026-05-06 15:27 37.80170 -10.65686 34029 ft 479 kts 43°
2026-05-06 15:28 37.84858 -10.59686 34040 ft 479 kts 43°
2026-05-06 15:28 37.89548 -10.53674 34029 ft 480 kts 43°
2026-05-06 15:29 37.94248 -10.47644 34020 ft 481 kts 43°
2026-05-06 15:29 37.98950 -10.41602 34017 ft 482 kts 43°
2026-05-06 15:30 38.03663 -10.35530 34017 ft 483 kts 43°
2026-05-06 15:30 38.08372 -10.29452 34019 ft 483 kts 43°
2026-05-06 15:31 38.13089 -10.23359 34017 ft 483 kts 43°
2026-05-06 15:31 38.17767 -10.17291 34022 ft 484 kts 43°
2026-05-06 15:32 38.24813 -10.08132 34024 ft 484 kts 43°
2026-05-06 15:32 38.29532 -10.02002 34020 ft 484 kts 43°
2026-05-06 15:33 38.34241 -9.95861 34018 ft 485 kts 43°
2026-05-06 15:33 38.38920 -9.89728 34010 ft 485 kts 43°
2026-05-06 15:34 38.43629 -9.83560 34010 ft 485 kts 43°
2026-05-06 15:34 38.48323 -9.77402 34022 ft 485 kts 43°
2026-05-06 15:35 38.53034 -9.71213 34028 ft 486 kts 43°
2026-05-06 15:35 38.57743 -9.65014 34009 ft 486 kts 43°
2026-05-06 15:36 38.62440 -9.58808 34005 ft 486 kts 44°
2026-05-06 15:36 38.67140 -9.52588 33998 ft 486 kts 44°
2026-05-06 15:37 38.71801 -9.46419 34000 ft 486 kts 44°
2026-05-06 15:37 38.76493 -9.40190 34005 ft 486 kts 43°
2026-05-06 15:38 38.81195 -9.33930 34005 ft 486 kts 44°
2026-05-06 15:38 38.85882 -9.27669 34003 ft 486 kts 44°
2026-05-06 15:39 38.90571 -9.21405 33999 ft 486 kts 44°
2026-05-06 15:39 38.95258 -9.15135 33972 ft 487 kts 44°
2026-05-06 15:40 38.99934 -9.08847 33990 ft 487 kts 44°
2026-05-06 15:40 39.04619 -9.02543 33984 ft 487 kts 44°
2026-05-06 15:41 39.09271 -8.96287 33980 ft 486 kts 44°
2026-05-06 15:41 39.13948 -8.89974 33969 ft 486 kts 44°
2026-05-06 15:42 39.18619 -8.83652 33967 ft 486 kts 44°
2026-05-06 15:42 39.23286 -8.77332 33954 ft 486 kts 44°
2026-05-06 15:43 39.27944 -8.70998 33964 ft 487 kts 44°
2026-05-06 15:43 39.32581 -8.64683 33963 ft 486 kts 44°
2026-05-06 15:44 39.37234 -8.58334 33952 ft 486 kts 44°
2026-05-06 15:44 39.41875 -8.51978 33946 ft 486 kts 44°
2026-05-06 15:45 39.46483 -8.45662 33939 ft 486 kts 44°
2026-05-06 15:45 39.51132 -8.39297 33963 ft 486 kts 44°
2026-05-06 15:46 39.55777 -8.32918 33936 ft 486 kts 44°
2026-05-06 15:46 39.60408 -8.26534 33938 ft 485 kts 44°
2026-05-06 15:47 39.65025 -8.20145 33940 ft 485 kts 44°
2026-05-06 15:47 39.69612 -8.13795 33932 ft 485 kts 44°
2026-05-06 15:48 39.74214 -8.07411 33926 ft 484 kts 44°
2026-05-06 15:48 39.78818 -8.01011 33933 ft 485 kts 44°
2026-05-06 15:49 39.83424 -7.94607 33925 ft 484 kts 44°
2026-05-06 15:49 39.88017 -7.88189 33918 ft 484 kts 44°
2026-05-06 15:50 39.92611 -7.81757 33921 ft 484 kts 44°
2026-05-06 15:50 39.97208 -7.75319 33910 ft 484 kts 44°
2026-05-06 15:51 40.01774 -7.68909 33926 ft 484 kts 45°
2026-05-06 15:51 40.06355 -7.62452 33928 ft 484 kts 45°
2026-05-06 15:52 40.10931 -7.55995 33917 ft 484 kts 45°
2026-05-06 15:52 40.15498 -7.49535 33922 ft 484 kts 45°
2026-05-06 15:53 40.20054 -7.43072 33910 ft 483 kts 45°
2026-05-06 15:53 40.24620 -7.36611 33933 ft 483 kts 45°
2026-05-06 15:54 40.29172 -7.30137 33931 ft 483 kts 45°
2026-05-06 15:54 40.33681 -7.23695 33917 ft 482 kts 45°
2026-05-06 15:55 40.38219 -7.17213 33918 ft 482 kts 45°
2026-05-06 15:55 40.42754 -7.10728 33916 ft 481 kts 45°
2026-05-06 15:56 40.47277 -7.04236 33920 ft 481 kts 45°
2026-05-06 15:56 40.51787 -6.97736 33913 ft 481 kts 45°
2026-05-06 15:57 40.56271 -6.91271 33916 ft 481 kts 45°
2026-05-06 15:57 40.60794 -6.84757 33915 ft 481 kts 45°
2026-05-06 15:58 40.65292 -6.78247 33915 ft 480 kts 46°
2026-05-06 15:58 40.69765 -6.71752 33918 ft 480 kts 46°
2026-05-06 15:59 40.74252 -6.65233 33922 ft 480 kts 46°
2026-05-06 15:59 40.78734 -6.58705 33923 ft 479 kts 46°
2026-05-06 16:00 40.83205 -6.52172 33922 ft 479 kts 46°
2026-05-06 16:00 40.87687 -6.45619 33927 ft 479 kts 46°
2026-05-06 16:01 40.92131 -6.39110 33931 ft 479 kts 46°
2026-05-06 16:01 40.96587 -6.32544 33941 ft 478 kts 46°
2026-05-06 16:02 41.01238 -6.26279 33977 ft 477 kts 40°
2026-05-06 16:02 41.03707 -6.23346 34237 ft 477 kts 40°
2026-05-06 16:02 41.06169 -6.20422 34508 ft 476 kts 40°
2026-05-06 16:03 41.08633 -6.17494 34744 ft 476 kts 40°
2026-05-06 16:03 41.11070 -6.14594 34988 ft 476 kts 40°
2026-05-06 16:03 41.13528 -6.11657 35215 ft 476 kts 40°
2026-05-06 16:03 41.15979 -6.08718 35436 ft 476 kts 40°
2026-05-06 16:04 41.18434 -6.05766 35662 ft 476 kts 40°
2026-05-06 16:04 41.20889 -6.02812 35878 ft 476 kts 40°
2026-05-06 16:04 41.25804 -5.96909 35929 ft 476 kts 40°
2026-05-06 16:05 41.30711 -5.91009 35935 ft 475 kts 40°
2026-05-06 16:05 41.35609 -5.85108 35931 ft 476 kts 40°
2026-05-06 16:06 41.40514 -5.79174 35945 ft 476 kts 40°
2026-05-06 16:06 41.45410 -5.73237 35958 ft 476 kts 40°
2026-05-06 16:07 41.50285 -5.67270 35961 ft 476 kts 43°
2026-05-06 16:07 41.54232 -5.60181 35958 ft 479 kts 62°
2026-05-06 16:08 41.56980 -5.52081 35963 ft 479 kts 65°
2026-05-06 16:08 41.59675 -5.43996 35950 ft 479 kts 65°
2026-05-06 16:09 41.62388 -5.35855 35945 ft 479 kts 65°
2026-05-06 16:09 41.65083 -5.27696 35948 ft 479 kts 65°
2026-05-06 16:10 41.67760 -5.19527 35966 ft 480 kts 65°
2026-05-06 16:10 41.70439 -5.11360 35973 ft 479 kts 65°
2026-05-06 16:11 41.73121 -5.03182 35988 ft 479 kts 65°
2026-05-06 16:11 41.75787 -4.95004 35990 ft 479 kts 65°
2026-05-06 16:12 41.78452 -4.86819 35970 ft 479 kts 65°
2026-05-06 16:12 41.81111 -4.78627 35968 ft 480 kts 65°
2026-05-06 16:13 41.83316 -4.71805 35967 ft 480 kts 65°
2026-05-06 16:13 41.86394 -4.62251 35964 ft 480 kts 65°
2026-05-06 16:14 41.89041 -4.54024 35960 ft 480 kts 65°
2026-05-06 16:14 41.91257 -4.47118 35970 ft 480 kts 65°
2026-05-06 16:15 41.93877 -4.38922 35970 ft 480 kts 65°
2026-05-06 16:15 41.96505 -4.30667 35967 ft 480 kts 65°
2026-05-06 16:16 41.99128 -4.22402 35965 ft 480 kts 65°
2026-05-06 16:16 42.01740 -4.14140 35964 ft 480 kts 65°
2026-05-06 16:17 42.04415 -4.05921 35960 ft 480 kts 64°
2026-05-06 16:17 42.07305 -3.97820 35960 ft 480 kts 62°
2026-05-06 16:18 42.10234 -3.89762 35960 ft 480 kts 63°
2026-05-06 16:18 42.13113 -3.81641 35968 ft 480 kts 63°
2026-05-06 16:19 42.15948 -3.73486 35973 ft 480 kts 63°
2026-05-06 16:19 42.18766 -3.65385 35971 ft 481 kts 63°
2026-05-06 16:20 42.21603 -3.57228 35970 ft 481 kts 63°
2026-05-06 16:20 42.24441 -3.49053 35974 ft 481 kts 63°
2026-05-06 16:21 42.27274 -3.40868 35976 ft 481 kts 63°
2026-05-06 16:21 42.30105 -3.32666 35976 ft 482 kts 63°
2026-05-06 16:22 42.32930 -3.24450 35977 ft 482 kts 63°
2026-05-06 16:22 42.35742 -3.16220 35993 ft 483 kts 64°
2026-05-06 16:23 42.38555 -3.07981 36014 ft 482 kts 63°
2026-05-06 16:23 42.41372 -2.99740 36026 ft 482 kts 63°
2026-05-06 16:24 42.44097 -2.91463 36019 ft 483 kts 69°
2026-05-06 16:24 42.45405 -2.82614 36013 ft 484 kts 87°
2026-05-06 16:25 42.45538 -2.73498 36001 ft 485 kts 89°
2026-05-06 16:25 42.45670 -2.64376 35988 ft 485 kts 89°
2026-05-06 16:26 42.45796 -2.55231 35976 ft 486 kts 89°
2026-05-06 16:26 42.45908 -2.46084 35966 ft 486 kts 89°
2026-05-06 16:27 42.46009 -2.36926 35966 ft 486 kts 89°
2026-05-06 16:27 42.46858 -2.27861 35969 ft 485 kts 76°
2026-05-06 16:28 42.48358 -2.18949 35965 ft 486 kts 76°
2026-05-06 16:28 42.49842 -2.09994 35970 ft 487 kts 76°
2026-05-06 16:29 42.51317 -2.01037 35975 ft 487 kts 76°
2026-05-06 16:29 42.52784 -1.92079 35984 ft 487 kts 76°
2026-05-06 16:30 42.54000 -1.84630 35992 ft 488 kts 77°
2026-05-06 16:30 42.55720 -1.74124 35990 ft 488 kts 77°
2026-05-06 16:31 42.57179 -1.65129 35993 ft 488 kts 77°
2026-05-06 16:31 42.58612 -1.56186 35993 ft 488 kts 77°
2026-05-06 16:32 42.60044 -1.47187 35984 ft 489 kts 77°
2026-05-06 16:32 42.61477 -1.38160 36001 ft 489 kts 77°
2026-05-06 16:33 42.62909 -1.29130 35998 ft 489 kts 77°
2026-05-06 16:34 42.65044 -1.15592 35988 ft 488 kts 77°
2026-05-06 16:34 42.66448 -1.06575 35972 ft 489 kts 78°
2026-05-06 16:35 42.67854 -0.97519 35965 ft 489 kts 78°
2026-05-06 16:35 42.69256 -0.88464 35960 ft 490 kts 78°
2026-05-06 16:36 42.70644 -0.79401 35966 ft 490 kts 78°
2026-05-06 16:36 42.72030 -0.70319 35963 ft 491 kts 78°
2026-05-06 16:37 42.73407 -0.61283 35961 ft 491 kts 78°
2026-05-06 16:37 42.74781 -0.52177 35956 ft 491 kts 78°
2026-05-06 16:38 42.76147 -0.43054 35959 ft 492 kts 78°
2026-05-06 16:38 42.77503 -0.33929 35959 ft 492 kts 78°
2026-05-06 16:39 42.78925 -0.24811 35974 ft 492 kts 73°
2026-05-06 16:39 42.81708 -0.16363 35974 ft 489 kts 55°
2026-05-06 16:40 42.85874 -0.09086 35970 ft 486 kts 48°
2026-05-06 16:40 42.90164 -0.01939 35988 ft 488 kts 49°
2026-05-06 16:41 42.94448 0.05234 35968 ft 487 kts 49°
2026-05-06 16:41 42.98737 0.12412 35971 ft 488 kts 48°
2026-05-06 16:42 43.03022 0.19594 36006 ft 488 kts 49°
2026-05-06 16:42 43.07269 0.26748 36018 ft 487 kts 49°
2026-05-06 16:43 43.11528 0.33932 36010 ft 486 kts 49°
2026-05-06 16:43 43.15779 0.41120 35999 ft 485 kts 49°
2026-05-06 16:44 43.20028 0.48315 35979 ft 486 kts 49°
2026-05-06 16:44 43.24284 0.55525 35995 ft 486 kts 49°
2026-05-06 16:45 43.28522 0.62738 35982 ft 485 kts 49°
2026-05-06 16:45 43.32751 0.69961 35983 ft 485 kts 49°
2026-05-06 16:46 43.36968 0.77190 35971 ft 485 kts 49°
2026-05-06 16:46 43.41190 0.84425 35957 ft 485 kts 49°
2026-05-06 16:47 43.45420 0.91674 35972 ft 485 kts 49°
2026-05-06 16:47 43.49603 0.98889 35974 ft 484 kts 50°
2026-05-06 16:48 43.53797 1.06149 35967 ft 484 kts 50°
2026-05-06 16:48 43.57989 1.13411 35959 ft 483 kts 50°
2026-05-06 16:49 43.62173 1.20670 35962 ft 484 kts 50°
2026-05-06 16:49 43.66352 1.27957 35979 ft 484 kts 50°
2026-05-06 16:50 43.70497 1.35293 35979 ft 484 kts 51°
2026-05-06 16:50 43.74493 1.42788 35975 ft 484 kts 52°
2026-05-06 16:51 43.78434 1.50331 35964 ft 484 kts 52°
2026-05-06 16:51 43.82410 1.57850 35960 ft 484 kts 52°
2026-05-06 16:52 43.86411 1.65369 35946 ft 484 kts 52°
2026-05-06 16:52 43.90392 1.72882 35931 ft 484 kts 52°
2026-05-06 16:53 43.94369 1.80430 35930 ft 484 kts 52°
2026-05-06 16:53 43.98271 1.87983 35930 ft 484 kts 54°
2026-05-06 16:54 44.02087 1.95701 35939 ft 485 kts 54°
2026-05-06 16:54 44.05884 2.03442 35939 ft 485 kts 54°
2026-05-06 16:55 44.09709 2.11172 35935 ft 485 kts 54°
2026-05-06 16:55 44.13544 2.18891 35939 ft 485 kts 54°
2026-05-06 16:56 44.17377 2.26634 35937 ft 485 kts 54°
2026-05-06 16:56 44.21190 2.34388 35934 ft 485 kts 54°
2026-05-06 16:57 44.24992 2.42157 35934 ft 485 kts 54°
2026-05-06 16:57 44.28772 2.49886 35930 ft 485 kts 54°
2026-05-06 16:58 44.32572 2.57673 35937 ft 485 kts 54°
2026-05-06 16:58 44.36367 2.65455 35933 ft 485 kts 54°
2026-05-06 16:59 44.40165 2.73266 35940 ft 485 kts 55°
2026-05-06 16:59 44.43952 2.81084 35943 ft 485 kts 55°
2026-05-06 17:00 44.47726 2.88914 35947 ft 485 kts 55°
2026-05-06 17:00 44.51504 2.96756 35927 ft 485 kts 55°
2026-05-06 17:01 44.55283 3.04607 35926 ft 485 kts 56°
2026-05-06 17:01 44.59044 3.12473 35927 ft 486 kts 56°
2026-05-06 17:02 44.62709 3.20443 35930 ft 486 kts 59°
2026-05-06 17:02 44.66028 3.28721 35916 ft 486 kts 62°
2026-05-06 17:03 44.69228 3.37103 35910 ft 486 kts 61°
2026-05-06 17:03 44.71938 3.44028 35914 ft 487 kts 60°
2026-05-06 17:04 44.75258 3.52323 35899 ft 487 kts 60°
2026-05-06 17:04 44.79125 3.61964 35900 ft 486 kts 60°
2026-05-06 17:05 44.81886 3.68926 35890 ft 486 kts 60°
2026-05-06 17:05 44.85165 3.77264 35893 ft 487 kts 60°
2026-05-06 17:06 44.88444 3.85618 35881 ft 487 kts 61°
2026-05-06 17:06 44.91725 3.93987 35881 ft 488 kts 61°
2026-05-06 17:07 44.94988 4.02326 35890 ft 488 kts 61°
2026-05-06 17:07 44.98288 4.10782 35893 ft 488 kts 61°
2026-05-06 17:08 45.01538 4.19131 35896 ft 488 kts 61°
2026-05-06 17:08 45.04801 4.27559 35883 ft 488 kts 61°
2026-05-06 17:09 45.08069 4.35996 35887 ft 489 kts 61°
2026-05-06 17:09 45.11334 4.44435 35902 ft 489 kts 61°
2026-05-06 17:10 45.14583 4.52901 35909 ft 489 kts 62°
2026-05-06 17:10 45.17809 4.61370 35901 ft 489 kts 62°
2026-05-06 17:11 45.21042 4.69860 35890 ft 489 kts 62°
2026-05-06 17:11 45.24279 4.78343 35890 ft 489 kts 62°
2026-05-06 17:12 45.27515 4.86862 35906 ft 490 kts 62°
2026-05-06 17:12 45.30740 4.95373 35927 ft 489 kts 62°
2026-05-06 17:13 45.33951 5.03871 35903 ft 489 kts 62°
2026-05-06 17:13 45.37157 5.12401 35902 ft 489 kts 62°
2026-05-06 17:14 45.40336 5.20894 35907 ft 489 kts 62°
2026-05-06 17:14 45.43528 5.29450 35906 ft 489 kts 63°
2026-05-06 17:15 45.46716 5.38020 35933 ft 489 kts 63°
2026-05-06 17:15 45.50607 5.45928 35906 ft 489 kts 45°
2026-05-06 17:16 45.55631 5.52460 35902 ft 489 kts 41°
2026-05-06 17:16 45.60705 5.58929 35894 ft 489 kts 41°
2026-05-06 17:17 45.65776 5.65429 35910 ft 490 kts 41°
2026-05-06 17:17 45.70845 5.71950 35913 ft 490 kts 41°
2026-05-06 17:18 45.75913 5.78482 35914 ft 490 kts 41°
2026-05-06 17:18 45.80982 5.85000 35915 ft 490 kts 41°
2026-05-06 17:19 45.86052 5.91524 35923 ft 490 kts 41°
2026-05-06 17:19 45.91100 5.98040 35911 ft 491 kts 42°
2026-05-06 17:20 45.96171 6.04610 35898 ft 492 kts 42°
2026-05-06 17:20 46.01257 6.11215 35920 ft 492 kts 42°
2026-05-06 17:21 46.06337 6.17832 35938 ft 492 kts 42°
2026-05-06 17:21 46.11365 6.24492 35927 ft 491 kts 44°
2026-05-06 17:22 46.16240 6.31402 35939 ft 491 kts 45°
2026-05-06 17:22 46.21052 6.38410 35934 ft 491 kts 45°
2026-05-06 17:23 46.25878 6.45380 35905 ft 492 kts 45°
2026-05-06 17:23 46.30722 6.52295 35905 ft 493 kts 45°
2026-05-06 17:24 46.35616 6.59269 35915 ft 493 kts 45°
2026-05-06 17:24 46.40495 6.66267 35915 ft 494 kts 45°
2026-05-06 17:25 46.45361 6.73291 35921 ft 494 kts 45°
2026-05-06 17:25 46.50227 6.80343 35921 ft 494 kts 45°
2026-05-06 17:26 46.55076 6.87394 35901 ft 494 kts 46°
2026-05-06 17:26 46.59487 6.95046 35895 ft 494 kts 52°
2026-05-06 17:27 46.63816 7.02845 35896 ft 496 kts 52°
2026-05-06 17:27 46.68154 7.10684 35903 ft 497 kts 52°
2026-05-06 17:28 46.72490 7.18541 35908 ft 498 kts 52°
2026-05-06 17:28 46.76826 7.26396 35911 ft 497 kts 52°
2026-05-06 17:29 46.81127 7.34222 35908 ft 497 kts 52°
2026-05-06 17:29 46.85110 7.42426 35874 ft 495 kts 64°
2026-05-06 17:30 46.87729 7.51688 35896 ft 493 kts 72°
2026-05-06 17:30 46.90177 7.61082 35897 ft 494 kts 72°
2026-05-06 17:31 46.92624 7.70483 35908 ft 494 kts 72°
2026-05-06 17:31 46.95044 7.79825 35919 ft 494 kts 72°
2026-05-06 17:32 46.97460 7.89261 35914 ft 494 kts 72°
2026-05-06 17:32 46.99859 7.98681 35911 ft 494 kts 72°
2026-05-06 17:33 47.02266 8.08095 35907 ft 493 kts 72°
2026-05-06 17:33 47.04668 8.17507 35899 ft 493 kts 72°
2026-05-06 17:34 47.07043 8.26919 35870 ft 493 kts 72°
2026-05-06 17:34 47.09420 8.36377 35888 ft 494 kts 72°
2026-05-06 17:35 47.11786 8.45834 35923 ft 493 kts 72°
2026-05-06 17:35 47.14147 8.55308 35926 ft 493 kts 72°
2026-05-06 17:36 47.17660 8.69449 35898 ft 493 kts 72°
2026-05-06 17:36 47.19999 8.78922 35903 ft 493 kts 72°
2026-05-06 17:37 47.22330 8.88415 35908 ft 494 kts 73°
2026-05-06 17:37 47.24657 8.97927 35915 ft 494 kts 73°
2026-05-06 17:38 47.26986 9.07448 35914 ft 494 kts 73°
2026-05-06 17:38 47.29299 9.16950 35871 ft 493 kts 73°
2026-05-06 17:39 47.31607 9.26488 35885 ft 491 kts 73°
2026-05-06 17:39 47.32734 9.31159 35901 ft 476 kts 73°
2026-05-06 17:39 47.33843 9.35764 35896 ft 480 kts 73°
2026-05-06 17:40 47.36088 9.45168 35894 ft 490 kts 73°
2026-05-06 17:40 47.38335 9.54627 35892 ft 493 kts 73°
2026-05-06 17:41 47.40605 9.64246 35896 ft 492 kts 76°
2026-05-06 17:41 47.42139 9.73943 36211 ft 488 kts 81°
2026-05-06 17:42 47.42853 9.78847 36504 ft 486 kts 81°
2026-05-06 17:42 47.43563 9.83724 36780 ft 485 kts 81°
2026-05-06 17:42 47.44274 9.88601 36889 ft 485 kts 81°
2026-05-06 17:42 47.44984 9.93464 36902 ft 485 kts 81°
2026-05-06 17:43 47.46390 10.03202 36899 ft 484 kts 81°
2026-05-06 17:43 47.47784 10.12946 36902 ft 485 kts 81°
2026-05-06 17:44 47.49174 10.22696 36895 ft 484 kts 82°
2026-05-06 17:44 47.50553 10.32442 36893 ft 484 kts 81°
2026-05-06 17:45 47.51923 10.42203 36886 ft 485 kts 82°
2026-05-06 17:45 47.53283 10.51972 36867 ft 485 kts 82°
2026-05-06 17:46 47.54629 10.61732 36853 ft 484 kts 82°
2026-05-06 17:46 47.55973 10.71530 36862 ft 485 kts 82°
2026-05-06 17:47 47.57312 10.81302 36849 ft 485 kts 82°
2026-05-06 17:47 47.58640 10.91039 36854 ft 484 kts 82°
2026-05-06 17:48 47.59965 11.00840 36807 ft 485 kts 82°
2026-05-06 17:48 47.61276 11.10653 36822 ft 486 kts 82°
2026-05-06 17:49 47.62584 11.20490 36822 ft 487 kts 82°
2026-05-06 17:49 47.63888 11.30339 36821 ft 487 kts 82°
2026-05-06 17:50 47.65185 11.40203 36802 ft 487 kts 83°
2026-05-06 17:50 47.66464 11.50017 36798 ft 487 kts 83°
2026-05-06 17:51 47.67733 11.59904 36812 ft 488 kts 83°
2026-05-06 17:51 47.69009 11.69814 36803 ft 489 kts 83°
2026-05-06 17:52 47.70069 11.78120 36814 ft 489 kts 83°
2026-05-06 17:52 47.71426 11.87944 36783 ft 490 kts 81°
2026-05-06 17:53 47.72950 11.97812 36809 ft 490 kts 81°
2026-05-06 17:53 47.74468 12.07689 36785 ft 490 kts 81°
2026-05-06 17:54 47.75929 12.17572 36796 ft 490 kts 81°
2026-05-06 17:54 47.77355 12.27435 36789 ft 489 kts 81°
2026-05-06 17:55 47.78162 12.37395 36782 ft 484 kts 90°
2026-05-06 17:55 47.78671 12.47390 36757 ft 485 kts 90°
2026-05-06 17:56 47.79167 12.57342 36777 ft 486 kts 90°
2026-05-06 17:56 47.79664 12.67356 36795 ft 486 kts 90°
2026-05-06 17:57 47.80154 12.77366 36593 ft 481 kts 90°
2026-05-06 17:57 47.80395 12.82282 36271 ft 473 kts 90°
2026-05-06 17:57 47.80630 12.87140 35708 ft 471 kts 91°
2026-05-06 17:58 47.80859 12.92020 35032 ft 472 kts 91°
2026-05-06 17:58 47.81084 12.96898 34297 ft 475 kts 91°
2026-05-06 17:58 47.81309 13.01833 33423 ft 479 kts 91°
2026-05-06 17:58 47.81530 13.06731 32579 ft 482 kts 91°
2026-05-06 17:59 47.81754 13.11716 31765 ft 484 kts 91°
2026-05-06 17:59 47.81978 13.16729 30939 ft 486 kts 91°
2026-05-06 17:59 47.82200 13.21753 30076 ft 488 kts 91°
2026-05-06 17:59 47.82422 13.26816 29141 ft 491 kts 91°
2026-05-06 18:00 47.82641 13.31883 28195 ft 492 kts 91°
2026-05-06 18:00 47.82863 13.36964 27271 ft 492 kts 91°
2026-05-06 18:00 47.83083 13.42037 26361 ft 491 kts 91°
2026-05-06 18:00 47.83301 13.47108 25452 ft 491 kts 90°
2026-05-06 18:01 47.83514 13.52181 24969 ft 490 kts 91°
2026-05-06 18:01 47.83726 13.57251 24755 ft 491 kts 90°
2026-05-06 18:01 47.83936 13.62310 24721 ft 491 kts 90°
2026-05-06 18:01 47.84145 13.67419 24724 ft 491 kts 91°
2026-05-06 18:02 47.84347 13.72478 24726 ft 490 kts 91°
2026-05-06 18:02 47.84545 13.77532 24720 ft 488 kts 91°
2026-05-06 18:02 47.84740 13.82567 24730 ft 488 kts 91°
2026-05-06 18:02 47.84936 13.87614 24727 ft 488 kts 91°
2026-05-06 18:03 47.85132 13.92657 24730 ft 488 kts 91°
2026-05-06 18:03 47.85324 13.97708 24721 ft 488 kts 91°
2026-05-06 18:03 47.85512 14.02690 24494 ft 488 kts 91°
2026-05-06 18:03 47.85701 14.07732 24235 ft 488 kts 91°
2026-05-06 18:04 47.85887 14.12768 23995 ft 487 kts 91°
2026-05-06 18:04 47.86065 14.17806 23754 ft 487 kts 90°
2026-05-06 18:04 47.86243 14.22907 23515 ft 487 kts 91°
2026-05-06 18:04 47.86416 14.27875 23282 ft 486 kts 91°
2026-05-06 18:05 47.86591 14.32888 23010 ft 484 kts 90°
2026-05-06 18:05 47.86766 14.37892 22745 ft 483 kts 90°
2026-05-06 18:05 47.86939 14.42886 22469 ft 481 kts 91°
2026-05-06 18:05 47.87106 14.47848 22202 ft 479 kts 91°
2026-05-06 18:06 47.87270 14.52799 21927 ft 477 kts 90°
2026-05-06 18:06 47.87431 14.57714 21656 ft 475 kts 91°
2026-05-06 18:06 47.87588 14.62625 21391 ft 473 kts 91°
2026-05-06 18:06 47.87742 14.67511 21133 ft 471 kts 91°
2026-05-06 18:07 47.87893 14.72387 20872 ft 470 kts 91°
2026-05-06 18:07 47.88043 14.77218 20617 ft 468 kts 91°
2026-05-06 18:07 47.88189 14.81994 20368 ft 466 kts 91°
2026-05-06 18:07 47.88339 14.86869 20115 ft 465 kts 91°
2026-05-06 18:08 47.88483 14.91614 19883 ft 463 kts 91°
2026-05-06 18:08 47.88622 14.96392 19607 ft 461 kts 91°
2026-05-06 18:08 47.88756 15.01155 19364 ft 458 kts 91°
2026-05-06 18:08 47.88889 15.05889 19130 ft 456 kts 91°
2026-05-06 18:09 47.89022 15.10615 18888 ft 456 kts 91°
2026-05-06 18:09 47.89156 15.15321 18644 ft 454 kts 91°
2026-05-06 18:09 47.89291 15.20011 18410 ft 452 kts 90°
2026-05-06 18:09 47.89440 15.24698 18178 ft 451 kts 90°
2026-05-06 18:10 47.89788 15.29341 17319 ft 457 kts 79°
2026-05-06 18:10 47.90937 15.33807 16042 ft 468 kts 62°
2026-05-06 18:10 47.92559 15.37997 15321 ft 463 kts 60°
2026-05-06 18:10 47.94168 15.42110 14702 ft 455 kts 60°
2026-05-06 18:11 47.95746 15.46156 14130 ft 447 kts 60°
2026-05-06 18:11 47.97287 15.50139 13446 ft 443 kts 60°
2026-05-06 18:11 47.98813 15.54113 12731 ft 438 kts 60°
2026-05-06 18:11 48.00317 15.58047 12025 ft 433 kts 61°
2026-05-06 18:12 48.01796 15.61932 11292 ft 429 kts 60°
2026-05-06 18:12 48.03245 15.65743 11046 ft 415 kts 60°
2026-05-06 18:12 48.04641 15.69411 10878 ft 410 kts 60°
2026-05-06 18:12 48.06046 15.73106 10776 ft 408 kts 60°
2026-05-06 18:13 48.07449 15.76802 10569 ft 408 kts 60°
2026-05-06 18:13 48.08849 15.80493 10394 ft 406 kts 60°
2026-05-06 18:13 48.10242 15.84172 10204 ft 408 kts 60°
2026-05-06 18:13 48.11632 15.87847 10042 ft 400 kts 60°
2026-05-06 18:14 48.12958 15.91355 9621 ft 376 kts 60°
2026-05-06 18:14 48.14215 15.94687 8965 ft 359 kts 60°
2026-05-06 18:14 48.15424 15.97891 8289 ft 347 kts 60°
2026-05-06 18:14 48.16593 16.00988 7626 ft 336 kts 62°
2026-05-06 18:15 48.17716 16.03967 7002 ft 327 kts 61°
2026-05-06 18:15 48.18816 16.06898 6333 ft 321 kts 61°
2026-05-06 18:15 48.19904 16.09805 5605 ft 317 kts 62°
2026-05-06 18:15 48.20968 16.12646 5109 ft 303 kts 62°
2026-05-06 18:16 48.21925 16.15328 4971 ft 278 kts 70°
2026-05-06 18:16 48.22410 16.17987 4975 ft 254 kts 86°
2026-05-06 18:16 48.22439 16.20506 4947 ft 229 kts 102°
2026-05-06 18:16 48.22117 16.22718 4958 ft 216 kts 115°
2026-05-06 18:17 48.21518 16.24738 4781 ft 211 kts 122°
2026-05-06 18:17 48.20876 16.26733 4519 ft 214 kts 122°
2026-05-06 18:17 48.20224 16.28763 4238 ft 216 kts 122°
2026-05-06 18:17 48.19589 16.30743 3955 ft 205 kts 122°
2026-05-06 18:18 48.18995 16.32595 3670 ft 191 kts 123°
2026-05-06 18:18 48.18441 16.34317 3419 ft 178 kts 124°
2026-05-06 18:18 48.17925 16.35916 3191 ft 167 kts 124°
2026-05-06 18:18 48.17438 16.37423 2969 ft 159 kts 125°
2026-05-06 18:19 48.16966 16.38882 2773 ft 152 kts 126°
2026-05-06 18:19 48.16515 16.40277 2579 ft 147 kts 126°
2026-05-06 18:19 48.16074 16.41636 2379 ft 143 kts 126°
2026-05-06 18:19 48.15647 16.42955 2184 ft 140 kts 126°
2026-05-06 18:20 48.15223 16.44263 1969 ft 139 kts 129°
2026-05-06 18:20 48.14800 16.45564 1769 ft 140 kts 130°
2026-05-06 18:20 48.14375 16.46876 1608 ft 139 kts 129°
2026-05-06 18:20 48.13957 16.48161 1404 ft 136 kts 128°
2026-05-06 18:21 48.13543 16.49432 1218 ft 139 kts 125°
2026-05-06 18:21 48.13127 16.50720 1021 ft 137 kts 122°
2026-05-06 18:21 48.12711 16.52000 844 ft 137 kts 121°
2026-05-06 18:21 48.12295 16.53287 671 ft 139 kts 121°
2026-05-06 18:22 48.11894 16.54528 625 ft 121 kts 123°
2026-05-06 18:22 48.11586 16.55471 618 ft 76 kts 117°
2026-05-06 18:22 48.11418 16.55976 615 ft 42 kts 117°
2026-05-06 18:22 48.11310 16.56342 618 ft 35 kts 107°
2026-05-06 18:23 48.11294 16.56636 619 ft 19 kts 87°
2026-05-06 18:23 48.11299 16.56717 622 ft 4 kts 82°
2026-05-06 18:23 48.11302 16.56735 621 ft 0 kts 74°
2026-05-06 18:24 48.11311 16.56758 612 ft 7 kts 51°
2026-05-06 18:24 48.11353 16.56819 610 ft 8 kts 84°
2026-05-06 18:24 48.11329 16.56907 610 ft 10 kts 117°
2026-05-06 18:25 48.11294 16.57014 614 ft 13 kts 116°
2026-05-06 18:25 48.11254 16.57137 623 ft 11 kts 116°
2026-05-06 18:25 48.11243 16.57170 614 ft 0 kts 116°
2026-05-06 18:25 48.11243 16.57171 610 ft 0 kts 116°
2026-05-06 18:26 48.11242 16.57173 625 ft 0 kts 116°
2026-05-06 18:26 48.11241 16.57174 624 ft 1 kts 116°
2026-05-06 18:26 48.11226 16.57222 623 ft 9 kts 109°
2026-05-06 18:27 48.11276 16.57308 613 ft 13 kts 26°
2026-05-06 18:27 48.11356 16.57364 615 ft 12 kts 25°
2026-05-06 18:27 48.11424 16.57376 617 ft 9 kts 325°
2026-05-06 18:27 48.11450 16.57300 610 ft 6 kts 257°
2026-05-06 18:28 48.11421 16.57272 610 ft 6 kts 213°
2026-05-06 18:28 48.11387 16.57248 615 ft 0 kts 204°